Temperature
21 20 20 22 26 29 29 29 28 28 28 26 26 26 27 26 26 25 21 21 21 20 19 20 19 19 19 20 20 20 20 20 20 20 19 19 19 19 19 18 18 18 18 18 18 18 18 18 18
20 20 21 25 29 29 29 29 28 28 27 25 25 25 25 25 23 21 20 20 20 20 19 19 19 19 19 19 19 20 20 20 20 20 19 19 19 19 19 18 18 18 19 19 18 18 18 18 18
20 20 24 28 29 29 29 29 28 27 25 25 25 25 25 24 21 20 20 20 20 20 19 19 19 19 19 19 19 19 19 19 19 19 19 19 19 19 19 19 18 19 19 18 18 18 18 18 18
21 23 26 29 29 29 29 29 28 27 26 25 25 25 23 21 21 20 20 20 20 19 19 19 19 19 19 19 19 19 19 19 19 19 19 19 19 19 19 19 18 18 18 18 18 18 18 18 18
22 26 29 29 29 29 29 28 27 27 27 25 25 25 23 20 20 20 20 20 20 20 19 19 19 19 19 19 19 19 19 19 19 19 19 19 19 19 18 18 18 18 18 18 18 18 18 18 18
25 28 29 29 29 29 29 27 27 27 26 25 25 25 22 19 19 19 20 20 20 20 20 19 19 19 19 19 19 19 19 19 19 19 19 19 19 18 18 18 18 18 18 18 18 18 18 18 18
26 29 29 29 29 29 29 27 27 27 26 25 24 25 22 20 19 19 20 20 20 20 20 18 18 18 18 18 18 19 19 19 19 19 19 19 18 18 18 18 18 18 18 18 18 18 18 18 18
25 29 29 29 28 29 28 27 26 26 26 24 23 25 23 19 19 19 19 19 20 19 19 18 18 18 18 18 18 18 18 19 19 18 18 18 18 18 18 18 18 17 17 17 18 18 18 18 18
24 28 29 29 28 29 28 27 25 24 24 23 23 23 22 19 18 18 19 19 19 19 19 19 18 18 18 18 18 18 18 18 18 18 18 18 17 17 17 17 17 17 17 17 17 18 18 18 18
26 28 29 29 29 29 28 27 26 25 25 24 23 21 20 19 19 19 19 19 18 18 18 18 18 18 18 18 17 17 17 18 17 17 17 17 17 17 17 17 17 17 17 17 17 17 17 17 17
27 28 29 29 28 27 27 26 26 26 26 25 23 21 20 19 19 19 19 19 19 18 18 18 18 18 18 18 18 17 17 17 17 17 17 17 17 17 17 17 17 17 17 17 17 17 17 17 17
28 28 28 28 27 27 27 26 26 25 25 22 22 21 20 19 19 19 19 19 18 18 18 17 17 18 18 18 18 18 17 17 17 17 17 17 17 17 17 17 17 17 17 17 17 17 17 17 17
28 28 28 27 27 26 26 26 25 24 23 21 21 20 20 19 19 19 19 18 18 18 17 17 18 18 18 18 18 17 17 17 17 17 17 17 16 16 16 16 17 16 16 16 16 16 17 16 16
29 28 28 27 27 26 26 26 25 24 22 21 21 20 20 19 19 19 18 18 18 18 17 18 18 18 18 18 17 17 17 17 17 16 17 17 16 16 16 16 16 16 16 16 16 16 16 16 16
27 28 29 28 27 26 26 27 26 23 21 21 20 20 19 19 19 18 18 18 18 17 17 18 18 18 18 17 17 17 17 16 16 16 17 16 16 16 16 15 15 15 15 16 16 16 16 16 16
29 29 29 28 27 26 26 27 26 23 22 21 20 20 19 18 18 18 18 18 18 17 17 18 17 17 17 17 17 17 16 16 16 16 16 16 16 15 15 15 15 15 15 15 15 15 15 15 16
30 29 29 29 28 27 27 27 26 23 22 21 20 19 19 18 18 17 17 17 17 17 17 17 17 17 17 17 17 16 16 16 16 15 15 15 15 15 14 14 14 14 15 15 15 15 15 15 15
29 29 29 28 28 27 27 27 26 23 22 22 20 19 18 18 17 17 17 17 17 17 17 17 17 17 17 17 17 16 16 16 15 15 15 15 14 14 14 14 14 14 14 14 14 14 14 15 15
29 29 29 28 28 27 27 27 26 24 23 22 21 19 18 18 17 17 17 17 17 17 17 17 17 17 17 16 16 16 16 16 15 15 15 15 14 14 14 14 14 14 14 14 14 14 14 15 14
29 29 29 28 27 27 27 26 26 25 23 22 21 20 19 18 17 17 16 17 17 17 17 17 17 17 17 17 16 16 16 15 15 15 15 14 14 14 14 14 14 14 13 13 13 14 14 14 14
29 29 28 28 27 27 26 27 26 25 23 22 21 21 20 18 17 17 17 17 16 16 16 17 17 17 17 16 16 16 16 15 15 15 15 14 14 14 14 13 13 13 13 13 13 13 13 14 14
29 29 28 28 27 28 26 27 26 26 25 24 23 21 20 19 18 17 17 17 17 16 16 17 17 17 17 17 16 16 16 16 15 15 15 14 14 14 14 13 13 13 13 13 13 13 13 13 15
29 28 28 27 27 27 27 27 27 26 26 25 24 22 21 19 19 18 17 17 17 17 17 17 17 17 17 17 16 16 16 16 15 15 15 14 14 14 14 13 13 13 13 13 13 13 13 13 14
28 27 27 27 28 27 27 27 27 27 26 26 25 23 21 20 19 18 17 17 17 17 16 16 17 17 17 17 17 16 16 16 16 15 15 15 14 14 14 13 13 13 13 12 12 12 12 13 13
28 28 27 27 27 27 27 27 27 27 27 26 25 23 22 20 19 18 18 17 17 17 17 17 17 17 17 17 17 17 16 16 16 15 15 15 15 14 14 14 14 13 13 13 12 12 12 12 12
28 28 27 26 27 28 27 27 28 27 26 26 25 24 22 21 20 19 18 18 17 17 17 17 17 17 17 17 17 17 17 16 16 16 15 15 15 15 14 14 14 13 13 13 13 12 12 12 12
28 28 29 28 27 27 28 28 28 27 27 26 25 24 23 22 21 20 19 18 18 18 18 17 17 18 18 18 18 18 17 17 16 16 16 15 15 15 15 15 14 14 13 13 13 13 12 12 12
28 29 28 27 26 26 27 27 28 27 27 27 26 25 24 23 22 21 20 19 19 19 18 18 18 18 18 18 18 18 18 18 17 17 16 16 16 15 15 15 15 14 14 14 13 13 12 12 12
27 27 27 28 27 26 26 27 28 27 27 27 27 26 25 24 23 22 21 20 20 19 19 19 18 18 18 18 18 18 18 18 18 17 17 17 16 16 16 15 15 15 14 14 14 13 13 13 12
28 28 27 27 26 26 26 27 28 27 27 27 27 26 25 24 24 23 22 21 21 20 20 19 19 19 19 19 19 19 19 18 18 18 18 17 17 17 16 16 16 15 15 15 14 14 14 13 13
Wind_Speed
11 8 5 4 6 5 1 1 0 1 2 2 4 3 3 2 1 4 7 16 19 20 21 21 18 17 16 16 16 16 16 16 15 14 13 12 11 11 10 10 10 9 9 9 9 9 8 8 8
7 4 5 5 6 4 1 1 1 0 2 4 4 3 3 2 3 7 10 17 20 21 21 21 19 17 16 16 16 16 15 15 14 13 12 11 11 10 9 9 9 9 9 8 8 8 8 8 8
5 5 5 5 4 4 2 1 1 1 3 4 3 2 0 2 5 7 12 20 21 20 20 20 20 18 17 16 16 15 15 14 13 12 12 11 10 9 8 8 8 8 8 7 7 7 7 7 7
4 5 5 6 3 1 2 2 1 3 4 4 3 2 2 3 3 8 17 21 21 19 19 21 19 18 17 16 15 15 14 13 13 12 11 10 9 8 8 7 7 7 7 6 6 6 6 6 6
6 5 6 5 1 1 2 2 1 4 3 4 4 2 3 4 6 14 18 20 20 19 18 21 18 17 16 16 15 15 14 13 12 11 10 8 7 7 6 6 6 6 5 5 5 5 5 5 5
4 5 5 2 1 1 1 1 2 3 2 3 3 3 4 5 10 15 18 18 18 18 17 20 17 16 16 15 15 14 13 12 11 9 8 7 6 5 5 4 5 5 4 4 4 4 4 4 4
5 4 2 1 1 0 1 1 3 3 3 2 2 3 5 8 10 14 16 16 16 16 16 17 18 16 15 14 14 13 12 11 9 8 7 6 5 4 3 3 3 3 4 3 3 3 3 2 2
4 4 2 0 2 2 1 0 2 3 1 2 2 2 5 10 12 13 14 14 14 14 14 15 15 15 15 14 13 12 11 10 9 8 6 5 5 5 3 5 4 3 3 4 3 3 3 3 2
4 4 0 2 3 3 1 2 1 1 2 3 2 1 6 14 14 14 14 14 14 13 12 13 13 13 12 12 13 12 11 9 9 8 6 5 5 4 5 2 2 3 3 4 4 4 4 4 5
4 3 3 4 5 6 3 4 2 4 5 5 5 5 10 14 15 16 16 16 16 15 13 11 11 12 12 10 11 9 9 8 6 4 4 3 1 1 1 5 2 3 4 5 5 4 6 8 7
4 4 4 4 5 6 5 4 4 6 5 4 6 10 13 14 15 16 16 16 16 15 13 12 11 11 10 8 8 7 6 6 5 3 2 1 1 2 2 2 4 4 6 6 5 7 7 6 4
6 6 7 6 5 5 5 3 4 5 3 1 3 9 13 14 15 15 15 15 15 14 13 12 11 9 8 7 7 6 5 5 4 4 1 1 0 2 1 2 2 3 4 3 4 4 4 4 4
8 6 5 5 5 3 3 3 4 3 1 2 5 10 13 14 13 12 12 13 13 13 12 11 10 10 8 7 6 6 5 4 5 3 3 1 1 1 1 1 2 3 3 4 4 4 3 4 4
5 6 6 4 3 3 4 3 4 3 3 5 7 10 12 13 13 12 12 12 11 11 11 10 10 9 9 7 6 5 6 5 4 4 4 3 2 2 2 1 1 2 2 2 2 2 3 3 3
7 7 5 4 3 2 5 6 4 3 5 6 7 9 11 11 12 12 12 11 11 10 11 11 10 9 9 8 7 6 6 6 5 5 5 3 3 2 2 1 1 1 1 1 2 2 2 3 3
7 7 4 2 3 3 6 4 3 4 6 6 7 8 9 9 10 9 10 10 10 10 11 11 10 10 9 7 6 6 6 6 5 5 5 4 4 3 2 1 1 1 1 1 1 2 2 1 2
4 7 8 2 4 4 6 5 2 4 6 6 7 7 8 9 10 10 10 9 10 10 10 10 9 10 9 8 7 7 6 5 5 5 5 5 4 3 2 2 2 1 1 1 1 0 2 1 2
9 10 8 7 1 6 7 6 2 4 6 7 7 8 8 9 10 10 10 9 9 9 9 10 10 10 9 8 7 6 6 5 5 4 5 3 4 3 2 2 2 1 1 1 1 1 1 2 2
10 10 10 6 2 5 7 7 4 4 6 7 8 9 9 9 10 10 10 9 10 9 9 11 11 11 9 8 8 7 6 5 4 4 5 3 3 3 2 2 2 1 2 2 1 1 1 1 2
9 10 8 4 1 5 7 6 3 4 6 7 8 9 10 11 11 11 11 11 11 11 11 12 12 11 10 8 7 5 5 5 4 4 5 4 3 3 3 3 2 2 2 2 1 2 2 1 1
9 9 9 8 4 5 7 4 3 4 5 7 7 8 10 12 13 13 13 12 13 12 12 12 12 12 11 10 8 7 6 5 5 5 5 5 4 3 3 2 2 2 0 2 1 1 1 1 0
8 5 6 6 7 4 4 5 3 4 6 7 8 8 10 12 13 14 14 14 14 14 13 12 13 12 11 11 9 10 7 6 5 5 5 6 5 4 3 2 2 1 2 2 0 3 1 2 1
6 4 5 6 7 5 2 5 3 4 4 6 8 9 10 12 13 14 14 14 14 14 13 13 13 12 12 11 10 9 8 5 5 5 6 6 6 6 5 4 3 2 1 1 2 1 2 1 2
2 4 6 7 7 3 4 5 2 2 1 4 7 9 10 12 13 13 13 13 13 14 14 14 13 13 12 12 11 11 9 7 6 7 7 7 6 6 7 6 5 4 2 2 1 1 1 2 2
6 8 6 5 3 3 2 4 3 3 2 4 7 9 11 12 13 13 14 15 15 16 16 15 15 14 14 13 13 12 10 9 9 8 8 7 6 6 8 7 6 5 4 4 3 3 1 2 1
6 8 7 7 7 6 1 3 3 3 4 5 7 10 12 13 13 14 15 15 16 17 17 16 16 15 15 14 13 12 11 9 8 9 7 7 6 6 6 8 8 7 7 6 5 4 4 3 3
5 6 6 8 8 7 3 2 2 5 6 7 9 11 12 13 14 15 15 16 16 17 17 17 16 15 15 15 14 13 12 11 9 8 9 8 7 6 7 8 8 8 8 7 7 6 5 5 6
6 4 4 6 6 6 4 2 1 4 7 9 10 11 12 13 14 15 16 16 16 17 16 16 16 15 15 15 14 12 13 12 11 10 10 8 8 7 8 9 9 9 9 9 9 8 7 7 7
6 5 6 6 6 7 6 2 3 1 4 8 10 11 12 14 15 15 16 16 16 16 16 16 16 15 15 15 14 13 12 12 12 11 11 10 10 10 10 10 10 10 10 10 10 10 8 9 9
8 8 7 7 6 6 8 3 5 2 2 5 7 9 11 13 14 15 16 16 16 17 17 16 16 16 15 14 14 13 13 12 12 12 12 11 11 11 11 11 11 11 11 11 12 12 11 11 11
Wind_Direction
186 201 230 242 240 233 263 99 201 159 128 124 152 175 177 156 158 104 127 153 150 151 149 153 153 151 146 141 136 133 131 129 128 126 125 122 120 119 117 113 109 102 98 93 91 89 86 81 75
185 209 237 243 257 252 157 131 200 132 110 127 147 170 172 145 87 114 144 154 153 153 152 156 153 154 150 145 140 136 134 132 131 130 128 125 123 120 116 112 110 105 102 98 94 91 85 78 72
197 237 257 249 259 298 1 60 349 128 156 172 164 183 263 98 124 142 151 155 155 153 153 149 156 157 154 149 144 141 139 137 136 134 132 131 128 124 119 114 111 108 106 102 98 93 86 76 68
221 230 238 249 249 30 339 343 329 187 177 192 189 148 109 67 127 144 149 156 155 153 156 151 159 157 155 151 148 146 143 142 141 140 138 137 135 132 127 122 118 115 112 107 104 98 89 76 65
242 254 236 230 245 38 341 342 260 219 188 186 203 154 107 71 118 139 151 156 156 157 158 152 159 157 155 153 151 148 147 146 145 143 141 140 139 138 135 131 130 127 123 119 112 109 100 83 66
236 248 246 241 100 21 2 350 246 240 211 177 193 169 96 107 134 146 152 157 158 158 157 149 156 157 155 153 152 151 150 148 147 145 142 140 138 136 137 141 141 142 143 138 132 128 118 96 74
272 264 281 322 10 73 33 337 277 253 217 185 186 169 125 129 135 146 152 158 159 159 156 154 162 161 157 153 153 151 149 147 146 144 143 143 144 147 147 156 165 165 164 165 164 153 144 131 102
287 267 204 139 328 12 59 233 344 289 252 120 203 198 142 142 141 146 150 156 157 160 160 158 166 162 166 160 153 149 146 145 143 142 144 148 159 168 176 201 184 200 203 198 196 190 177 162 151
269 253 78 32 341 346 25 256 168 261 218 191 192 65 120 142 146 148 152 156 159 163 164 166 161 162 167 162 154 156 150 148 157 158 153 189 199 188 189 178 134 212 219 218 211 203 189 191 178
251 277 32 357 321 316 298 268 238 219 219 210 181 142 139 152 158 160 163 164 165 166 167 166 164 164 169 162 153 162 164 155 172 149 166 195 189 248 245 125 175 219 221 215 206 206 205 224 202
249 288 333 317 311 297 276 253 238 250 243 228 194 167 163 165 171 172 171 171 169 167 167 167 165 166 166 158 159 159 149 146 152 131 137 133 234 236 241 227 198 215 220 225 195 213 225 222 220
258 275 287 293 306 283 273 261 247 256 292 54 188 175 172 176 179 178 174 172 169 168 168 167 162 163 165 159 152 154 154 154 146 127 147 146 249 294 315 279 275 245 235 232 234 223 229 231 216
249 278 290 289 278 273 250 246 262 253 221 181 177 180 183 184 181 178 175 170 170 168 166 163 162 160 156 151 158 148 145 143 122 110 87 16 317 335 328 315 298 276 263 231 228 231 218 214 210
285 279 276 270 258 226 238 232 233 222 173 177 180 184 186 185 181 173 171 171 172 169 165 160 161 159 155 154 148 138 135 125 116 100 77 36 19 14 327 275 303 294 282 288 256 236 215 217 205
271 269 251 220 232 220 247 232 223 180 177 182 182 186 185 184 181 179 176 173 171 169 166 161 161 159 156 152 147 139 140 133 112 96 85 61 44 35 344 354 292 348 323 228 228 223 221 212 204
245 257 288 159 219 214 255 284 125 166 186 187 185 182 182 179 181 180 177 175 171 166 166 163 163 156 151 144 145 142 137 123 110 102 94 75 60 41 351 353 21 353 288 240 192 248 223 228 239
243 320 334 331 209 233 254 294 119 172 189 192 187 186 189 180 182 182 178 172 169 163 159 157 154 153 148 144 143 133 126 120 118 108 94 86 71 53 29 36 34 293 288 288 270 72 292 255 279
335 328 327 327 262 245 260 279 243 189 197 194 186 185 187 188 183 176 173 168 161 157 155 152 147 148 147 144 141 142 140 139 131 114 99 96 86 61 30 82 48 344 64 61 42 45 357 313 297
309 311 318 332 324 270 274 281 274 203 201 197 191 185 181 182 173 170 172 168 163 165 165 159 155 152 156 159 162 163 161 158 152 139 124 118 93 82 33 56 80 8 56 21 353 308 213 275 307
294 302 319 328 280 281 297 287 261 202 205 203 198 194 187 176 174 173 174 171 171 173 172 164 161 164 172 168 168 167 157 170 161 150 142 145 128 114 100 56 84 72 87 75 29 332 307 357 318
304 313 324 320 300 243 289 254 189 181 193 196 201 197 188 180 179 177 175 173 173 175 172 171 169 172 178 170 169 159 160 177 174 175 173 170 162 141 92 96 66 74 25 83 41 348 313 313 104
306 339 311 299 290 322 311 325 127 169 189 196 196 193 187 183 179 177 177 177 178 177 173 172 174 178 178 178 183 182 189 190 183 188 174 176 186 183 167 147 112 80 67 93 118 62 349 303 276
313 323 289 283 286 291 303 309 84 164 200 193 192 189 183 180 179 178 180 181 181 177 175 176 177 182 181 188 190 197 205 198 184 188 176 195 191 200 197 189 177 179 163 88 51 71 358 339 329
227 246 245 246 260 292 11 315 26 96 187 173 176 180 180 178 178 178 180 178 180 179 180 180 181 186 187 192 198 208 210 206 198 201 193 203 198 201 200 202 203 208 196 175 182 173 159 20 9
228 270 280 270 268 355 54 299 9 78 155 174 170 172 175 177 177 177 179 179 181 182 184 185 186 190 192 196 202 207 211 208 210 213 206 215 210 203 195 204 205 211 206 207 208 217 243 216 237
246 279 295 310 321 332 199 321 42 111 150 166 165 164 170 176 179 181 182 182 183 184 186 188 191 194 195 200 205 209 210 215 217 214 221 211 221 214 189 199 206 211 212 213 212 230 220 225 240
247 260 304 286 286 292 324 344 134 146 162 168 170 170 175 179 181 183 184 186 186 188 189 192 193 197 199 203 205 209 211 220 223 208 215 218 213 207 195 203 208 212 214 219 219 235 232 229 240
274 273 257 277 298 300 302 294 60 156 175 176 179 182 181 180 182 183 184 187 188 190 192 194 197 201 204 206 209 211 211 213 215 216 216 217 209 208 202 206 211 214 214 216 223 232 224 233 239
199 221 251 273 291 297 306 352 59 144 185 185 185 186 185 185 185 184 185 186 188 190 192 196 200 204 207 211 211 216 213 212 211 214 214 212 212 206 209 211 213 217 218 218 221 236 233 233 239
247 246 236 263 272 266 288 314 97 107 170 190 191 187 188 190 188 187 186 187 191 194 196 198 203 207 210 211 212 214 215 213 213 214 213 210 210 210 211 214 217 221 222 221 223 230 233 233 237
Height
1527 1528 1530 1531 1524 1513 1513 1511 1509 1511 1513 1516 1518 1519 1518 1519 1522 1530 1532 1533 1537 1541 1544 1546 1550 1553 1556 1558 1560 1561 1562 1563 1564 1565 1566 1566 1567 1567 1568 1568 1568 1569 1569 1570 1570 1570 1570 1570 1570
1530 1530 1532 1527 1515 1514 1514 1510 1510 1511 1515 1519 1520 1521 1520 1521 1525 1528 1529 1532 1537 1542 1545 1548 1551 1554 1557 1559 1561 1562 1563 1564 1565 1566 1567 1568 1568 1569 1569 1570 1570 1570 1571 1571 1572 1572 1572 1572 1572
1530 1531 1530 1518 1511 1512 1513 1510 1510 1514 1518 1520 1520 1521 1521 1524 1526 1527 1529 1532 1538 1543 1547 1549 1552 1555 1558 1560 1562 1563 1564 1565 1566 1567 1568 1569 1569 1570 1571 1571 1571 1572 1572 1573 1573 1574 1574 1574 1574
1532 1531 1527 1515 1510 1510 1511 1510 1512 1515 1518 1520 1520 1521 1524 1526 1527 1528 1529 1534 1539 1543 1548 1550 1553 1556 1559 1561 1563 1564 1565 1566 1567 1568 1569 1570 1571 1571 1572 1572 1573 1573 1574 1574 1574 1575 1575 1576 1576
1532 1527 1516 1511 1510 1511 1511 1513 1514 1514 1516 1519 1520 1521 1524 1527 1527 1529 1531 1536 1541 1545 1549 1551 1554 1557 1560 1562 1563 1565 1566 1567 1568 1569 1570 1571 1571 1572 1573 1573 1574 1574 1575 1575 1576 1576 1577 1577 1578
1529 1522 1514 1512 1512 1512 1512 1514 1515 1515 1516 1520 1521 1521 1526 1528 1529 1531 1535 1539 1543 1547 1551 1552 1555 1558 1560 1563 1564 1566 1567 1568 1569 1570 1570 1571 1572 1573 1573 1574 1575 1575 1576 1576 1577 1577 1578 1578 1579
1527 1517 1514 1513 1513 1512 1512 1515 1515 1515 1517 1520 1522 1522 1526 1529 1531 1533 1537 1541 1545 1549 1552 1554 1556 1558 1561 1563 1565 1566 1567 1568 1569 1570 1571 1572 1573 1573 1574 1575 1575 1576 1576 1577 1577 1578 1579 1579 1579
1528 1519 1513 1512 1514 1512 1513 1516 1518 1518 1518 1522 1523 1522 1526 1530 1531 1534 1538 1542 1545 1549 1552 1555 1558 1560 1562 1563 1565 1566 1568 1569 1570 1571 1572 1572 1573 1574 1575 1576 1576 1576 1577 1577 1578 1578 1579 1579 1580
1529 1519 1513 1512 1514 1511 1513 1515 1519 1520 1521 1522 1523 1524 1527 1529 1531 1534 1538 1542 1545 1549 1552 1555 1558 1560 1562 1565 1565 1567 1568 1569 1570 1571 1572 1573 1575 1576 1576 1576 1576 1577 1577 1577 1578 1578 1579 1580 1580
1526 1516 1513 1513 1513 1512 1514 1516 1517 1519 1519 1521 1523 1525 1527 1529 1531 1534 1537 1540 1544 1548 1551 1554 1557 1559 1563 1565 1565 1567 1569 1569 1571 1572 1573 1574 1574 1575 1576 1575 1576 1576 1577 1577 1577 1578 1578 1580 1581
1522 1516 1513 1514 1514 1515 1514 1515 1516 1516 1515 1518 1521 1524 1527 1529 1532 1534 1537 1540 1544 1547 1550 1553 1556 1559 1562 1564 1565 1567 1569 1569 1571 1572 1572 1573 1574 1575 1575 1575 1576 1576 1576 1577 1577 1577 1579 1580 1581
1520 1516 1516 1515 1515 1515 1514 1514 1515 1516 1517 1519 1521 1523 1525 1528 1530 1533 1537 1540 1543 1546 1549 1553 1555 1558 1560 1563 1565 1567 1569 1570 1571 1571 1572 1573 1574 1574 1574 1574 1574 1575 1576 1575 1576 1576 1577 1578 1578
1518 1515 1515 1514 1514 1514 1515 1514 1515 1516 1518 1519 1520 1522 1524 1527 1530 1533 1536 1539 1542 1545 1548 1551 1554 1557 1559 1562 1564 1567 1568 1570 1570 1571 1571 1571 1573 1573 1573 1572 1572 1574 1574 1574 1574 1575 1576 1576 1577
1515 1514 1513 1513 1513 1514 1513 1513 1515 1515 1517 1519 1520 1521 1523 1526 1529 1532 1535 1538 1541 1544 1547 1550 1553 1556 1559 1562 1564 1566 1568 1569 1570 1570 1570 1570 1571 1571 1571 1571 1571 1572 1572 1573 1573 1574 1574 1575 1576
1515 1511 1508 1509 1511 1511 1512 1509 1510 1514 1516 1518 1519 1520 1523 1525 1528 1530 1534 1537 1540 1544 1547 1550 1553 1556 1559 1562 1565 1566 1568 1569 1570 1570 1569 1569 1570 1569 1570 1571 1571 1571 1571 1571 1572 1572 1573 1574 1575
1509 1506 1504 1505 1508 1510 1512 1507 1509 1513 1515 1516 1518 1520 1522 1524 1526 1529 1532 1536 1539 1543 1546 1549 1553 1556 1559 1562 1564 1566 1568 1569 1569 1569 1569 1569 1568 1568 1569 1570 1570 1569 1571 1571 1571 1572 1573 1574 1574
1502 1504 1504 1503 1506 1506 1507 1505 1507 1512 1513 1515 1517 1518 1521 1522 1525 1527 1530 1534 1538 1541 1545 1548 1552 1554 1558 1561 1563 1566 1567 1568 1569 1570 1569 1568 1568 1568 1569 1569 1569 1569 1570 1571 1571 1572 1572 1573 1573
1508 1504 1502 1502 1501 1504 1504 1502 1504 1509 1512 1513 1515 1517 1519 1521 1523 1525 1528 1532 1535 1539 1543 1547 1550 1553 1557 1560 1563 1565 1567 1568 1569 1569 1568 1568 1568 1568 1568 1569 1568 1569 1570 1570 1570 1570 1570 1571 1572
1504 1504 1502 1500 1500 1502 1500 1500 1501 1506 1509 1511 1513 1516 1517 1519 1521 1524 1527 1530 1534 1538 1542 1545 1548 1552 1556 1559 1562 1565 1567 1568 1569 1569 1568 1568 1568 1568 1568 1569 1568 1568 1569 1569 1570 1570 1571 1571 1571
1502 1502 1499 1497 1500 1501 1499 1498 1499 1503 1506 1509 1511 1513 1516 1518 1520 1523 1526 1529 1532 1536 1539 1543 1547 1551 1555 1558 1562 1564 1566 1568 1568 1568 1568 1568 1568 1568 1569 1567 1569 1568 1568 1569 1569 1569 1571 1571 1571
1498 1499 1498 1499 1498 1498 1499 1496 1497 1500 1504 1507 1509 1511 1513 1516 1518 1521 1524 1528 1531 1534 1537 1542 1546 1550 1554 1557 1560 1563 1565 1566 1567 1568 1568 1568 1568 1568 1567 1568 1568 1568 1569 1569 1568 1569 1569 1571 1571
1498 1495 1497 1498 1499 1495 1500 1501 1495 1495 1499 1502 1505 1508 1511 1514 1517 1520 1523 1526 1530 1533 1537 1541 1545 1549 1553 1556 1559 1562 1564 1566 1567 1567 1568 1567 1567 1568 1568 1568 1567 1568 1569 1568 1569 1568 1569 1569 1571
1496 1497 1497 1496 1496 1496 1495 1499 1493 1493 1495 1497 1501 1505 1508 1512 1515 1518 1521 1525 1529 1533 1536 1540 1544 1548 1551 1554 1558 1560 1563 1565 1566 1566 1566 1567 1567 1567 1567 1567 1567 1567 1568 1568 1567 1567 1568 1569 1569
1497 1497 1496 1494 1490 1501 1497 1500 1496 1489 1491 1493 1497 1502 1507 1510 1514 1517 1520 1524 1528 1532 1535 1539 1543 1546 1549 1553 1556 1558 1561 1563 1564 1564 1565 1566 1566 1566 1566 1566 1566 1567 1568 1567 1567 1567 1567 1567 1567
1497 1498 1502 1502 1501 1499 1493 1497 1493 1487 1489 1492 1495 1500 1505 1509 1512 1516 1519 1522 1526 1530 1534 1538 1541 1544 1547 1551 1554 1556 1558 1560 1561 1563 1563 1564 1566 1565 1565 1565 1565 1566 1566 1566 1566 1566 1567 1567 1567
1492 1494 1507 1515 1508 1496 1492 1494 1487 1486 1490 1493 1495 1499 1504 1507 1511 1514 1517 1521 1524 1528 1532 1536 1539 1542 1545 1548 1551 1554 1556 1558 1560 1560 1562 1562 1563 1564 1563 1563 1564 1564 1565 1565 1565 1566 1566 1566 1566
1492 1490 1486 1496 1497 1500 1492 1487 1483 1486 1489 1492 1495 1498 1502 1506 1509 1512 1516 1519 1523 1526 1530 1533 1537 1540 1543 1546 1549 1551 1553 1555 1557 1557 1558 1560 1560 1561 1560 1561 1562 1562 1563 1563 1564 1565 1564 1564 1565
1489 1487 1492 1495 1509 1509 1497 1491 1487 1485 1487 1489 1493 1496 1500 1504 1507 1510 1514 1517 1521 1524 1528 1531 1534 1537 1540 1543 1546 1548 1550 1551 1553 1554 1555 1556 1557 1557 1558 1559 1559 1560 1561 1561 1561 1563 1563 1562 1562
1492 1492 1491 1489 1494 1506 1508 1496 1479 1483 1484 1487 1490 1494 1497 1501 1504 1508 1511 1515 1519 1522 1526 1528 1531 1534 1537 1540 1542 1544 1546 1548 1549 1550 1552 1553 1554 1554 1555 1556 1557 1558 1558 1558 1559 1560 1560 1560 1560
1482 1484 1488 1497 1497 1496 1498 1492 1478 1481 1483 1486 1488 1492 1495 1499 1502 1505 1509 1513 1516 1519 1523 1526 1528 1531 1534 1536 1538 1540 1543 1544 1545 1547 1548 1549 1550 1551 1552 1553 1554 1555 1555 1556 1556 1556 1557 1557 1557